Pensacola NAS, FL

2:44 AM CDT on March 27, 2017 (GMT -0500)
Pensacola Naval Air Station

Weather History for KNPA - March, 2012

Change the Weather History Date:

Friday, March 30, 2012

  Actual Average Record
Temperature  
Mean Temperature 74 °F -  
Max Temperature 78 °F 70 °F 78 °F (1997)
Min Temperature 69 °F 53 °F 44 °F (2003)
Cooling Degree Days 8    
Growing Degree Days 24 (Base 50)    
Moisture  
Dew Point 69 °F    
Average Humidity 89    
Maximum Humidity 97    
Minimum Humidity 65    
Precipitation  
Precipitation 0.00 in - - ()
Sea Level Pressure  
Sea Level Pressure 29.93 in    
Wind  
Wind Speed 9 mph (South)    
Max Wind Speed 16 mph    
Max Gust Speed 20 mph    
Visibility 10 miles    
Events      
Averages and records for this station are not official NWS values.
T = Trace of Precipitation, MM = Missing Value Source: NWS Daily Summary

Daily Weather History Graph

Daily Weather History Graph

Search for Another Location

Airport or City:

Trip Planner

Search our weather history database for the weather conditions in past years. The results will help you decide how hot, cold, wet, or windy it might be!

Date:

Astronomy

Mar. 30, 2012 Rise Set
Actual Time 6:40 AM CDT 7:07 PM CDT
Civil Twilight 6:16 AM CDT 7:31 PM CDT
Nautical Twilight 5:47 AM CDT 7:59 PM CDT
Astronomical Twilight 5:19 AM CDT 8:28 PM CDT
Moon 12:04 PM CDT (3/30) 1:24 AM CDT (3/30)
Length of Visible Light 13h 15m
Length of Day
12h 26m
Waxing Crescent, 49% of the Moon is Illuminated
Mar 30
Waxing Crescent
Mar 30
First Quarter
Apr 6
Full
Apr 13
Last Quarter
Apr 21
New

Hourly Weather History & Observations

Time (CDT) Temp. Dew Point Humidity Pressure Visibility Wind Dir Wind Speed Gust Speed Precip Events Conditions
12:56 AM 70.0 °F 68.0 °F 93% 29.96 in 10.0 mi SE 4.6 mph - N/A   Mostly Cloudy
1:23 AM 71.6 °F 69.8 °F 94% 29.95 in 10.0 mi South 6.9 mph - N/A   Mostly Cloudy
1:56 AM 71.1 °F 69.1 °F 93% 29.94 in 10.0 mi SSE 6.9 mph - N/A   Overcast
2:39 AM 71.6 °F 69.8 °F 94% 29.93 in 10.0 mi South 8.1 mph - N/A   Overcast
2:56 AM 71.1 °F 69.1 °F 93% 29.93 in 10.0 mi South 9.2 mph - N/A   Overcast
3:25 AM 71.6 °F 69.8 °F 94% 29.92 in 10.0 mi South 9.2 mph - N/A   Mostly Cloudy
3:53 AM 69.8 °F 68.0 °F 94% 29.92 in 10.0 mi South 9.2 mph - N/A   Scattered Clouds
3:56 AM 70.0 °F 68.0 °F 93% 29.93 in 10.0 mi South 10.4 mph - N/A   Scattered Clouds
4:16 AM 71.6 °F 68.0 °F 88% 29.93 in 10.0 mi South 10.4 mph - N/A   Mostly Cloudy
4:24 AM 71.6 °F 69.8 °F 94% 29.93 in 10.0 mi South 9.2 mph - N/A   Mostly Cloudy
4:47 AM 69.8 °F 68.0 °F 94% 29.93 in 10.0 mi South 9.2 mph - N/A   Scattered Clouds
4:56 AM 70.0 °F 69.1 °F 97% 29.95 in 10.0 mi South 9.2 mph - N/A   Partly Cloudy
5:56 AM 70.0 °F 69.1 °F 97% 29.96 in 10.0 mi South 8.1 mph - N/A   Scattered Clouds
6:56 AM 70.0 °F 69.1 °F 97% 29.97 in 10.0 mi South 4.6 mph - N/A   Mostly Cloudy
7:56 AM 72.0 °F 70.0 °F 93% 29.98 in 10.0 mi South 10.4 mph - N/A   Mostly Cloudy
8:56 AM 73.9 °F 70.0 °F 87% 29.99 in 10.0 mi SSE 9.2 mph - N/A   Mostly Cloudy
9:56 AM 75.0 °F 70.0 °F 84% 29.99 in 10.0 mi SSE 10.4 mph - N/A   Mostly Cloudy
10:56 AM 77.0 °F 70.0 °F 79% 29.99 in 10.0 mi SSE 12.7 mph - N/A   Mostly Cloudy
11:56 AM 77.0 °F 71.1 °F 82% 29.98 in 10.0 mi SSE 10.4 mph - N/A   Mostly Cloudy
12:56 PM 77.0 °F 71.1 °F 82% 29.96 in 10.0 mi SSE 12.7 mph - N/A   Mostly Cloudy
1:29 PM 78.8 °F 71.6 °F 78% 29.94 in 10.0 mi South 13.8 mph - N/A   Overcast
1:56 PM 75.9 °F 71.1 °F 85% 29.94 in 10.0 mi South 13.8 mph 19.6 mph N/A   Overcast
2:46 PM 77.0 °F 64.4 °F 65% 29.93 in 10.0 mi SSW 16.1 mph - N/A   Mostly Cloudy
2:56 PM 77.0 °F 64.9 °F 66% 29.93 in 10.0 mi SSW 15.0 mph - N/A   Mostly Cloudy
3:56 PM 75.0 °F 66.9 °F 76% 29.92 in 10.0 mi South 13.8 mph - N/A   Mostly Cloudy
4:56 PM 75.0 °F 68.0 °F 79% 29.90 in 10.0 mi South 13.8 mph - N/A   Mostly Cloudy
5:20 PM 73.4 °F 66.2 °F 78% 29.89 in 10.0 mi South 13.8 mph - N/A   Mostly Cloudy
5:56 PM 73.0 °F 68.0 °F 84% 29.91 in 10.0 mi SSW 12.7 mph - N/A   Overcast
6:16 PM 73.4 °F 69.8 °F 88% 29.90 in 10.0 mi SSW 15.0 mph - N/A   Overcast
6:38 PM 73.4 °F 69.8 °F 88% 29.90 in 10.0 mi SSW 12.7 mph - N/A   Overcast
6:56 PM 72.0 °F 68.0 °F 87% 29.90 in 10.0 mi SSW 11.5 mph - N/A   Overcast
7:21 PM 71.6 °F 69.8 °F 94% 29.89 in 10.0 mi SSW 10.4 mph - N/A   Overcast
7:47 PM 71.6 °F 69.8 °F 94% 29.91 in 10.0 mi SSW 9.2 mph - N/A   Overcast
7:56 PM 72.0 °F 70.0 °F 93% 29.91 in 10.0 mi SSW 8.1 mph - N/A   Overcast
8:09 PM 71.6 °F 69.8 °F 94% 29.91 in 10.0 mi South 10.4 mph - N/A   Overcast
8:45 PM 71.6 °F 69.8 °F 94% 29.91 in 10.0 mi South 9.2 mph - N/A   Overcast
8:56 PM 72.0 °F 69.1 °F 91% 29.92 in 10.0 mi South 8.1 mph - N/A   Overcast
9:13 PM 71.6 °F 69.8 °F 94% 29.92 in 10.0 mi South 9.2 mph - N/A   Overcast
9:56 PM 72.0 °F 70.0 °F 93% 29.92 in 10.0 mi South 5.8 mph - N/A   Overcast
10:17 PM 71.6 °F 69.8 °F 94% 29.92 in 10.0 mi South 8.1 mph - N/A   Overcast
10:42 PM 71.6 °F 69.8 °F 94% 29.92 in 10.0 mi South 8.1 mph - N/A   Overcast
10:56 PM 72.0 °F 70.0 °F 93% 29.92 in 10.0 mi South 8.1 mph - N/A   Overcast
11:56 PM 72.0 °F 71.1 °F 97% 29.92 in 10.0 mi SSW 9.2 mph - N/A   Overcast